Weather History for KLOU - February, 2014

Change the Weather History Date:

Monday, February 3, 2014

  Actual Average Record
Temperature  
Mean Temperature 29 °F 36 °F  
Max Temperature 36 °F 44 °F 66 °F (1991)
Min Temperature 21 °F 27 °F -9 °F (1951)
Degree Days  
Heating Degree Days 36 29  
Month to date heating degree days 73 89  
Since 1 July heating degree days 2966 2698  
Cooling Degree Days 0 0  
Month to date cooling degree days 0 0  
Year to date cooling degree days 0 0  
Moisture  
Dew Point 23 °F    
Average Humidity 70    
Maximum Humidity 92    
Minimum Humidity 47    
Precipitation  
Precipitation 0.12 in 0.11 in 0.97 in (1989)
Month to date precipitation 0.84 0.35  
Year to date precipitation 3.10 3.73  
Sea Level Pressure  
Sea Level Pressure 30.24 in    
Wind  
Wind Speed 5 mph (North)    
Max Wind Speed 14 mph    
Max Gust Speed 20 mph    
Visibility 6 miles    
Events Fog , Snow    
T = Trace of Precipitation, MM = Missing Value Source: NWS Daily Summary

Daily Weather History Graph

Daily Weather History Graph

Search for Another Location

Airport or City:

Trip Planner

Search our weather history database for the weather conditions in past years. The results will help you decide how hot, cold, wet, or windy it might be!

Date:

Astronomy

Feb. 03, 2014 Rise Set
Actual Time 7:45 AM EST 6:07 PM EST
Civil Twilight 7:18 AM EST 6:35 PM EST
Nautical Twilight 6:46 AM EST 7:06 PM EST
Astronomical Twilight 6:15 AM EST 7:37 PM EST
Moon 9:52 AM EST (2/3) 10:52 PM EST (2/3)
Length of Visible Light 11h 17m
Length of Day
10h 21m
Waxing Crescent, 19% of the Moon is Illuminated
Feb 3
Waxing Crescent
Feb 6
First Quarter
Feb 14
Full
Feb 22
Last Quarter
Mar 1
New

Hourly Weather History & Observations

Time (EST) Temp. Windchill Dew Point Humidity Pressure Visibility Wind Dir Wind Speed Gust Speed Precip Events Conditions
12:21 AM 28.4 °F 19.7 °F 26.6 °F 93% 30.16 in 0.5 mi NNE 9.2 mph 16.1 mph 0.04 in Fog , Snow Snow
12:29 AM 28.4 °F 19.1 °F 26.6 °F 93% 30.15 in 0.8 mi NNE 10.4 mph - 0.04 in Snow Light Snow
12:44 AM 28.4 °F 21.2 °F 26.6 °F 93% 30.15 in 1.0 mi NNE 6.9 mph - 0.05 in Snow Light Snow
12:53 AM 28.9 °F 22.8 °F 26.1 °F 89% 30.17 in 1.2 mi North 5.8 mph - 0.05 in Snow Light Snow
1:29 AM 28.4 °F 21.2 °F 26.6 °F 93% 30.16 in 0.8 mi NNE 6.9 mph - 0.02 in Snow Light Snow
1:53 AM 28.0 °F 20.0 °F 26.1 °F 92% 30.16 in 0.5 mi NNE 8.1 mph - 0.05 in Fog , Snow Snow
2:09 AM 28.4 °F 19.7 °F 26.6 °F 93% 30.11 in 0.5 mi NNE 9.2 mph - 0.02 in Fog , Snow Snow
2:18 AM 28.4 °F 20.4 °F 26.6 °F 93% 30.11 in 0.8 mi North 8.1 mph 17.3 mph 0.02 in Snow Light Snow
2:25 AM 28.4 °F 20.4 °F 26.6 °F 93% 30.12 in 1.0 mi North 8.1 mph 17.3 mph 0.02 in Snow Light Snow
2:34 AM 28.4 °F 20.4 °F 26.6 °F 93% 30.12 in 2.0 mi North 8.1 mph - 0.02 in Snow Light Snow
2:48 AM 28.4 °F 21.2 °F 26.6 °F 93% 30.14 in 3.0 mi North 6.9 mph - 0.02 in Snow Light Snow
2:53 AM 28.9 °F 21.9 °F 26.1 °F 89% 30.15 in 3.0 mi North 6.9 mph - 0.02 in Snow Light Snow
3:09 AM 28.4 °F 20.4 °F 26.6 °F 93% 30.14 in 4.0 mi North 8.1 mph - 0.01 in Snow Light Snow
3:16 AM 28.4 °F 20.4 °F 26.6 °F 93% 30.14 in 5.0 mi North 8.1 mph - 0.01 in   Overcast
3:53 AM 28.9 °F 21.9 °F 25.0 °F 85% 30.18 in 7.0 mi NNW 6.9 mph - 0.01 in   Overcast
4:53 AM 28.0 °F 18.6 °F 23.0 °F 81% 30.20 in 7.0 mi NNW 10.4 mph - 0.00 in   Overcast
5:07 AM 28.4 °F 19.1 °F 23.0 °F 80% 30.19 in 7.0 mi NNW 10.4 mph 19.6 mph N/A   Overcast
5:53 AM 27.0 °F 18.7 °F 23.0 °F 85% 30.20 in 7.0 mi NNW 8.1 mph - N/A   Overcast
6:05 AM 26.6 °F 19.1 °F 23.0 °F 86% 30.19 in 7.0 mi North 6.9 mph - N/A   Overcast
6:53 AM 27.0 °F 19.5 °F 21.9 °F 81% 30.24 in 7.0 mi NNW 6.9 mph - N/A   Overcast
7:05 AM 26.6 °F 16.8 °F 21.2 °F 80% 30.23 in 7.0 mi NNW 10.4 mph - N/A   Overcast
7:48 AM 26.6 °F 20.0 °F 21.2 °F 80% 30.25 in 7.0 mi NNW 5.8 mph - N/A   Overcast
7:53 AM 26.1 °F 16.8 °F 21.0 °F 81% 30.27 in 6.0 mi NNW 9.2 mph - N/A   Haze
8:09 AM 26.6 °F 17.5 °F 21.2 °F 80% 30.26 in 6.0 mi North 9.2 mph - N/A   Haze
8:53 AM 25.0 °F 16.3 °F 19.9 °F 81% 30.30 in 6.0 mi NNW 8.1 mph - N/A   Haze
9:53 AM 26.1 °F 16.2 °F 19.9 °F 78% 30.31 in 7.0 mi North 10.4 mph - N/A   Partly Cloudy
10:53 AM 28.9 °F 22.8 °F 19.9 °F 69% 30.32 in 8.0 mi North 5.8 mph - N/A   Clear
11:40 AM 30.2 °F 26.7 °F 21.2 °F 69% 30.32 in 10.0 mi North 3.5 mph - N/A   Mostly Cloudy
11:53 AM 30.9 °F 27.5 °F 21.0 °F 67% 30.34 in 10.0 mi NNW 3.5 mph - N/A   Mostly Cloudy
12:08 PM 32.0 °F 27.5 °F 21.2 °F 64% 30.31 in 10.0 mi NNE 4.6 mph - N/A   Scattered Clouds
12:53 PM 30.9 °F - 21.0 °F 67% 30.32 in 10.0 mi Calm Calm - N/A   Partly Cloudy
1:53 PM 34.0 °F 28.0 °F 19.9 °F 56% 30.30 in 10.0 mi North 6.9 mph - N/A   Clear
2:53 PM 34.0 °F 27.2 °F 19.0 °F 54% 30.31 in 10.0 mi NNW 8.1 mph - N/A   Clear
3:53 PM 35.1 °F - 18.0 °F 50% 30.30 in 10.0 mi Calm Calm - N/A   Clear
4:53 PM 34.0 °F 29.8 °F 19.0 °F 54% 30.31 in 10.0 mi East 4.6 mph - N/A   Clear
5:53 PM 33.1 °F - 19.0 °F 56% 30.32 in 10.0 mi Calm Calm - N/A   Clear
6:53 PM 30.9 °F - 21.0 °F 67% 30.32 in 10.0 mi Calm Calm - N/A   Clear
7:53 PM 28.0 °F - 21.0 °F 75% 30.34 in 8.0 mi Calm Calm - N/A   Clear
8:53 PM 26.1 °F 21.9 °F 21.0 °F 81% 30.34 in 7.0 mi NNW 3.5 mph - N/A   Clear
9:53 PM 24.1 °F - 19.9 °F 84% 30.36 in 6.0 mi Calm Calm - N/A   Clear
10:53 PM 21.9 °F - 19.0 °F 89% 30.36 in 4.0 mi Calm Calm - N/A   Clear
11:53 PM 21.9 °F - 19.0 °F 89% 30.36 in 4.0 mi Calm Calm - N/A   Clear